Location: Hanston Mennonite Church
(38.1452°N, 99.7624°W)
Time: 05:20:24
(UTC+00:00)

Daily predictions for brighter satellites

Satellite Brightness Start Highest point End
(mag) Time Altitude Azimuth Time Altitude Azimuth Time Altitude Azimuth
DELTA 2 R/B (1) 3.7 00:07:35 10° WSW 00:13:11 89° NNW 00:18:49 10° ENE
Cosmos 1626 Rocket 3.9 00:10:29 10° SSW 00:14:48 71° W 00:19:08 10° N
Cosmos 1125 Rocket 3.9 00:10:14 10° SSW 00:15:22 66° WNW 00:20:35 10° NNE
Cosmos 2154 Rocket 4.0 00:09:15 10° S 00:15:32 82° E 00:21:47 10° N
USA 234 3.3 00:09:48 10° ESE 00:16:16 68° NE 00:22:45 10° NW
Atlas Centaur 2 3.8 00:13:27 10° SSW 00:16:21 17° SSE 00:19:38 10° ESE
NOAA 12 4.0 00:18:43 10° SSE 00:23:54 73° ENE 00:29:08 10° N
Cosmos 2237 Rocket 2.5 00:18:43 10° N 00:24:04 44° ENE 00:29:25 10° SE
SL-14 R/B 4.4 00:20:42 10° SSW 00:24:35 49° W 00:28:27 10° N
Okean O Rocket 4.3 00:20:59 10° SSW 00:24:36 25° W 00:28:16 10° NW
IRS-1C Rocket 4.4 00:19:25 10° S 00:24:40 76° WSW 00:29:56 10° NNW
Envisat 3.0 00:20:11 10° SSE 00:25:13 70° ENE 00:30:17 10° N
Okean-O 2.7 00:21:53 10° SSE 00:26:12 57° ENE 00:30:33 10° N
Shenzhou-11 Module 1.6 00:23:56 10° WSW 00:26:38 79° SSE 00:29:08 11° ENE
Cosmos 1340 Rocket 2.7 00:23:37 10° N 00:27:35 73° E 00:31:34 10° SSE
CSL-04 Rocket 4.5 00:25:26 10° SE 00:30:04 29° ENE 00:34:45 10° N
Cosmos 2333 Rocket 3.1 00:24:57 10° NNW 00:30:30 56° WSW 00:36:00 10° S
H-2A R/B 4.2 00:30:37 10° S 00:34:14 42° W 00:37:56 10° NNW
Cosmos 1825 Rocket 3.7 00:30:42 10° S 00:34:54 51° E 00:39:07 10° NNE
Cosmos 2366 rocket 4.4 00:35:03 10° SSE 00:40:44 40° E 00:46:29 10° NNE
Haruka 4.2 00:39:46 10° SSW 00:42:24 20° SSE 00:45:35 10° ESE
Cosmos 1269 Rocket 4.0 00:37:21 10° NNW 00:42:38 69° ENE 00:47:53 10° SSE
NOSS 0 Rocket 4.0 00:38:58 10° NNW 00:45:13 85° WSW 00:51:23 10° SSE
SL-16 R/B 3.1 00:41:44 10° N 00:46:25 26° ENE 00:51:03 10° ESE
Cosmos 962 Rocket 4.5 00:41:07 10° S 00:47:14 89° W 00:53:25 10° N
Cosmos 2219 3.7 00:43:06 10° SW 00:48:39 61° WNW 00:54:14 10° NNE
Meteor 1-21 Rocket 4.2 00:44:55 10° S 00:50:29 86° E 00:56:11 10° N
Cosmos 2082 3.9 00:45:24 10° S 00:50:48 51° ESE 00:56:14 10° NNE
ADEOS Rocket 3.9 00:49:01 10° NNE 00:55:08 34° E 01:01:43 10° SSE
Cosmos 1939 Rocket 3.5 00:52:21 10° SE 00:55:50 32° ENE 00:59:23 10° N
SKYMED 2 3.8 00:53:30 10° N 00:57:51 73° WNW 01:02:10 10° SSW
USA 116 3.2 00:55:17 11° NNE 00:58:08 50° E 01:01:09 10° S
Cosmos 2297 Rocket 2.5 00:54:36 10° SSW 01:00:13 71° WNW 01:05:54 10° NNE
FengYun 1-2 T 4.4 00:57:12 10° S 01:02:49 81° WSW 01:08:29 10° NNW
CZ-4C R/B 3.5 00:55:26 10° NW 01:02:55 66° WSW 01:11:13 10° SSE
Cosmos 1703 3.4 00:59:17 10° S 01:03:07 52° E 01:06:59 10° NNE
Cosmos 1980 3.9 01:01:04 10° NNW 01:06:46 76° WSW 01:12:25 10° SSE
SL-8 R/B 4.1 01:02:38 10° WSW 01:07:23 59° NNW 01:10:25 22° NE
Ariane Rocket 3.8 01:04:36 10° ESE 01:08:47 27° ENE 01:13:00 10° N
ISS -2.6 01:08:17 10° WSW 01:11:26 36° NNW 01:13:02 22° NNE
Cosmos 1727 Rocket 4.2 01:05:39 10° N 01:11:30 43° ENE 01:17:18 10° SSE
YAOGAN 1 2.4 01:07:44 10° SSE 01:12:02 74° ENE 01:16:22 10° N
Cosmos 2227 Rocket 2.7 01:07:13 10° SW 01:12:48 62° WNW 01:18:24 10° NNE
Cosmos-2242 3.0 01:09:43 10° N 01:14:03 86° W 01:18:19 10° S
NOAA 11 4.1 01:08:41 10° SSE 01:14:08 69° ENE 01:19:36 10° N
SL-8 Rocket 4.1 01:10:06 10° S 01:16:25 81° W 01:22:44 10° N
Cosmos 44 3.5 01:18:15 10° SW 01:22:51 60° WNW 01:26:01 19° NNE
CZ-4 R/B 2.3 01:23:57 10° S 01:27:51 51° W 01:31:52 10° NNW
ATLAS CENTAUR R/B 3.6 01:25:48 10° N 01:26:13 12° N 01:26:13 12° N
Meteor 2-10 Rocket 3.5 01:24:53 10° N 01:30:11 83° W 01:35:16 10° S
BREEZE-M DEB (TANK) 4.3 01:28:41 10° WNW 01:30:18 18° NNW 01:30:18 18° NNW
CZ-2D R/B 3.2 01:28:52 10° S 01:32:40 83° WSW 01:36:32 10° NNW
H-2A R/B 4.3 01:31:55 10° SSW 01:33:15 11° S 01:35:05 10° SSE
Cosmos 2251 Rocket 3.4 01:36:35 10° NNW 01:41:52 65° ENE 01:44:58 25° SE
Cosmos 1455 3.5 01:42:59 10° NNW 01:46:34 40° W 01:50:06 10° SSW
Cosmos 44 Rocket 4.1 01:44:13 10° S 01:47:29 34° SSE 01:47:29 34° SSE
Cosmos 1821 Rocket 4.0 01:43:06 10° SSE 01:49:18 56° E 01:52:20 30° NNE
DELTA 2 R/B (1) 3.4 01:54:12 10° W 01:59:49 79° N 02:00:18 72° ENE
Atlas Centaur 2 3.0 01:59:49 10° SW 02:04:27 36° S 02:04:41 35° SSE
Cosmos 2237 Rocket 4.5 02:03:26 10° NW 02:07:48 23° W 02:12:08 10° SSW
USA 238 DEB 4.4 02:11:42 10° S 02:15:55 37° SSE 02:15:55 37° SSE
USA 238 4.4 02:11:50 10° S 02:15:58 36° SSE 02:15:58 36° SSE
Meteor 1-27 4.5 02:18:40 10° NNW 02:24:10 65° W 02:29:40 10° S
SL-16 R/B 3.2 02:25:21 10° NW 02:30:41 43° WSW 02:34:26 19° SSW
ADEOS Rocket 4.4 02:34:21 10° N 02:40:35 42° WNW 02:47:22 10° SW
Cosmos 2263 Rocket 4.3 02:52:29 10° SSW 02:53:50 18° SSW 02:53:50 18° SSW
FALCON 9 R/B 3.7 02:50:49 10° WSW 03:00:28 41° SSW 03:00:28 41° SSW
CZ-3 R/B 3.8 10:40:02 46° SW 10:46:33 58° S 10:55:37 10° ESE
Cosmos 1980 Rocket 3.3 10:52:55 39° ENE 10:52:55 39° ENE 10:56:47 10° NNE
CENTAUR R/B 4.4 11:06:26 17° N 11:11:51 34° NE 11:19:32 10° ESE
Cosmos 2154 Rocket 4.3 11:08:50 15° N 11:14:01 63° E 11:20:09 10° SSE
Cosmos 1610 Rocket 4.4 11:22:21 22° N 11:26:37 86° E 11:32:59 10° S
ATLAS 2AS CENTAUR R/B 3.1 11:23:21 15° SSW 11:30:03 75° ESE 11:38:04 10° NE
Cosmos 2082 4.3 11:32:26 42° SSW 11:32:26 42° SSW 11:36:18 10° S
Cosmos 2344 3.8 11:40:05 45° WNW 11:40:32 45° NW 11:48:11 10° NNE
Cosmos 2322 Rocket 3.9 11:36:46 10° SSE 11:41:43 32° ESE 11:46:42 10° NE
USA 238 DEB 3.8 11:39:50 32° NNW 11:43:38 84° ENE 11:51:06 10° SSE
USA 238 3.8 11:39:55 32° NNW 11:43:44 84° ENE 11:51:12 10° SE
COSMOS 2455 2.8 11:44:21 59° W 11:44:52 62° WNW 11:50:51 10° NNE
Gbstr 26 Del rocket 4.4 11:41:05 27° SSW 11:45:05 71° SE 11:52:53 10° NE
Cosmos 1726 2.8 11:42:36 10° S 11:46:10 53° E 11:49:45 10° NNE
Cosmos 923 Rocket 4.0 11:44:48 10° SSW 11:50:02 80° ESE 11:55:21 10° NNE
SKYMED 2 3.7 11:46:28 10° SSE 11:50:46 71° ENE 11:53:08 26° N
METEOR-M 4.3 11:47:19 10° NNE 11:52:41 72° ESE 11:58:00 10° S
Cosmos 2263 Rocket 3.4 11:47:35 10° N 11:52:54 41° ENE 11:58:13 10° SE
